Location: Unnamed
(45.3580°N, 90.2245°W)
Time: 18:20:52
(UTC-05:00)

Envisat - Pass Details

Date: 08 March 2021
Orbit: 764 x 766 km, 98.1° (Epoch: 12 April)

Event Time Altitude Azimuth Distance (km) Brightness Sun altitude
Rises 05:52:48 0° 12° (NNE) 3,243 6.4 -6.6°
Reaches altitude 10° 05:55:07 10° 12° (NNE) 2,312 5.6 -6.2°
Maximum altitude 06:00:13 82° 285° (WNW) 778 3.0 -5.3°
Drops below altitude 10° 06:05:17 10° 199° (SSW) 2,294 5.3 -4.4°
Sets 06:07:34 0° 198° (SSW) 3,216 6.1 -4.0°
